Regional Weather Roundup
Issued by NWS Little Rock, AR

Home | Current Version | Previous Version | Graphics & Text | Print | Product List | Glossary On
Versions: 1 2 3 4 5 6 7 8 9 10 11 12 13 14 15 16 17 18 19 20 21 22 23 24 25 26 27
000
ASUS44 KLZK 241905
RWRLZK

WEATHER ROUNDUP FOR ARKANSAS
NATIONAL WEATHER SERVICE LITTLE ROCK AR
200 PM CDT TUE MAY 24 2016

NOTE: "FAIR" INDICATES FEW OR NO CLOUDS BELOW 12,000 FEET WITH NO
SIGNIFICANT WEATHER AND/OR OBSTRUCTIONS TO VISIBILITY.

ARZ001-003-010-029-242000-
NORTHWEST ARKANSAS

CITY           SKY/WX    TMP DP  RH WIND       PRES   REMARKS
FAYETTEVILLE   LGT RAIN  74  69  85 SW5       30.01R
FORT SMITH     PTSUNNY   80  69  69 SW9       29.97S THUNDER
HARRISON       TSTM      69  64  84 W6        30.00R
BENTONVILLE    CLOUDY    79  64  61 SW14G22   30.02F
ROGERS         CLOUDY    79  66  64 SW15G24   30.02F
SILOAM SPGS    CLOUDY    79  63  57 S10       30.01F
HIGHFILL       MOSUNNY   79  69  71 S12       30.00S
SPRINGDALE     PTSUNNY   81  68  65 SW13      30.03R
$$

ARZ004-005-016-242000-
NORTH CENTRAL ARKANSAS

CITY           SKY/WX    TMP DP  RH WIND       PRES   REMARKS
BATESVILLE     PTSUNNY   84  70  61 SW12      30.01R HX  88
FLIPPIN        PTSUNNY  N/A N/A N/A S8        29.95S
MTN HOME       MOSUNNY   80  68  66 E5        29.97F
$$

ARZ040-041-242000-
WEST CENTRAL ARKANSAS

CITY           SKY/WX    TMP DP  RH WIND       PRES   REMARKS
MENA           CLOUDY    81  73  78 SE5       30.02F HX  85
MOUNT IDA      PTSUNNY   82  68  62 VRB6      29.99S HX  85
$$

ARZ009-017-025-026-028-242000-
NORTHEAST ARKANSAS

CITY           SKY/WX    TMP DP  RH WIND       PRES   REMARKS
CORNING        TSTM      68  68 100 W12       30.08R
JONESBORO      CLOUDY    82  64  54 SE9       30.01F
NEWPORT        MOSUNNY   89  69  51 S17       30.00F HX  93
WALNUT RIDGE   CLOUDY    70  63  78 NE9G18    30.03S
BLYTHEVILLE    CLOUDY    83  60  45 S14       30.04F
NW BLYTHEVILLE CLOUDY    82  61  47 SW9G15    30.03F
$$

ARZ022-023-033-042-044-242000-
CENTRAL ARKANSAS

CITY           SKY/WX    TMP DP  RH WIND       PRES   REMARKS
LITTLE ROCK    PTSUNNY   87  68  52 SW16      30.00F HX  90
N LITTLE ROCK    N/A     84  69  59 S9        29.98F HX  87
JACKSONVILLE   MOSUNNY   87  70  56 SW15      30.00S HX  91
SEARCY         CLOUDY    86  71  60 SW9G16    30.02S HX  91
HOT SPRINGS    MOSUNNY   84  66  54 S8G21     30.00F HX  86
RUSSELLVILLE   MOSUNNY   85  65  51 S8G18     29.98F HX  86
CLINTON        FAIR      82  72  69 S6        30.01F HX  87
$$

ARZ036-242000-
EAST ARKANSAS

CITY           SKY/WX    TMP DP  RH WIND       PRES   REMARKS
WEST MEMPHIS   MOSUNNY   88  63  43 SW12      30.04F HX  89
$$

ARZ050-053-066-070-073-242000-
SOUTHWEST ARKANSAS

CITY           SKY/WX    TMP DP  RH WIND       PRES   REMARKS
ARKADELPHIA    FAIR      86  74  67 S13       30.01F HX  94
CAMDEN         MOSUNNY   88  63  42 SW12G17   30.01F HX  88
TEXARKANA      PTSUNNY   82  70  66 SE7       30.02F HX  86
EL DORADO      MOSUNNY   84  67  56 S9        30.03F HX  86
DE QUEEN       CLOUDY    81  72  74 S10       29.98F HX  85
$$

ARZ056-057-069-242000-
SOUTHEAST ARKANSAS

CITY           SKY/WX    TMP DP  RH WIND       PRES   REMARKS
PINE BLUFF     MOSUNNY   86  66  51 S13G22    30.02F HX  88
STUTTGART      PTSUNNY   88  64  45 S14G21    30.02F HX  89
MONTICELLO     MOSUNNY   88  66  48 S15G21    30.03F HX  90

$$






USA.gov is the U.S. government's official web portal to all federal, state and local government web resources and services.